Weather History for KRVS - December, 2012

Change the Weather History Date:

Sunday, December 30, 2012

  Actual Average (KTUL) Record (KTUL)
Temperature  
Mean Temperature 30 °F 38 °F  
Max Temperature 44 °F 47 °F 77 °F (1951)
Min Temperature 17 °F 28 °F 2 °F (1983)
Degree Days  
Heating Degree Days 34 28  
Month to date heating degree days 764  
Since 1 July heating degree days 1400  
Moisture  
Dew Point 17 °F    
Average Humidity 58    
Maximum Humidity 84    
Minimum Humidity 35    
Precipitation  
Precipitation 0.00 in 0.07 in 0.62 in (2006)
Month to date precipitation 2.43  
Year to date precipitation 40.91  
Sea Level Pressure  
Sea Level Pressure 30.36 in    
Wind  
Wind Speed 4 mph (South)    
Max Wind Speed 16 mph    
Max Gust Speed 25 mph    
Visibility 10 miles    
Events Rain    
T = Trace of Precipitation, MM = Missing Value Source: NWS Daily Summary

Daily Weather History Graph

Daily Weather History Graph

Search for Another Location

Airport or City:

Trip Planner

Search our weather history database for the weather conditions in past years. The results will help you decide how hot, cold, wet, or windy it might be!

Date:

Astronomy

Dec. 30, 2012 Rise Set
Actual Time 7:34 AM CST 5:19 PM CST
Civil Twilight 7:05 AM CST 5:47 PM CST
Nautical Twilight 6:33 AM CST 6:19 PM CST
Astronomical Twilight 6:02 AM CST 6:51 PM CST
Moon 7:46 PM CST (12/30) 8:48 AM CST (12/30)
Length of Visible Light 10h 42m
Length of Day
9h 44m
Waning Gibbous, 95% of the Moon is Illuminated
Dec 30
Waning Gibbous
Jan 4
Last Quarter
Jan 11
New
Jan 18
First Quarter
Jan 26
Full

Hourly Weather History & Observations

Time (CST) Temp. Windchill Dew Point Humidity Pressure Visibility Wind Dir Wind Speed Gust Speed Precip Events Conditions
12:53 AM 19.0 °F - 12.9 °F 77% 30.43 in 10.0 mi Calm Calm - N/A   Clear
1:53 AM 19.9 °F - 12.9 °F 74% 30.44 in 10.0 mi Calm Calm - N/A   Clear
2:53 AM 17.1 °F - 12.0 °F 81% 30.45 in 10.0 mi Calm Calm - N/A   Clear
3:53 AM 18.0 °F - 12.9 °F 81% 30.45 in 10.0 mi Calm Calm - N/A   Clear
4:53 AM 17.1 °F - 12.9 °F 84% 30.43 in 10.0 mi Calm Calm - N/A   Clear
5:53 AM 17.1 °F - 12.9 °F 84% 30.43 in 10.0 mi Calm Calm - N/A   Clear
6:53 AM 18.0 °F - 14.0 °F 84% 30.43 in 10.0 mi Calm Calm - N/A   Clear
7:53 AM 19.9 °F - 14.0 °F 78% 30.44 in 10.0 mi Calm Calm - N/A   Clear
8:53 AM 26.1 °F - 19.0 °F 75% 30.45 in 10.0 mi Calm Calm - N/A   Clear
9:53 AM 30.9 °F 27.5 °F 21.9 °F 69% 30.43 in 10.0 mi SSE 3.5 mph - N/A   Clear
10:53 AM 39.0 °F 34.0 °F 24.1 °F 55% 30.43 in 10.0 mi South 6.9 mph - N/A   Clear
11:53 AM 42.1 °F 34.5 °F 19.9 °F 41% 30.40 in 10.0 mi South 15.0 mph 23.0 mph N/A   Clear
12:53 PM 43.0 °F 35.4 °F 19.0 °F 38% 30.36 in 10.0 mi South 16.1 mph 25.3 mph N/A   Clear
1:53 PM 44.1 °F 39.5 °F 19.9 °F 38% 30.34 in 10.0 mi South 8.1 mph - N/A   Clear
2:53 PM 43.0 °F 36.0 °F 18.0 °F 37% 30.31 in 10.0 mi SSW 13.8 mph - N/A   Clear
3:53 PM 43.0 °F 37.2 °F 18.0 °F 37% 30.31 in 10.0 mi South 10.4 mph - N/A   Clear
4:53 PM 42.1 °F 37.1 °F 16.0 °F 35% 30.29 in 10.0 mi South 8.1 mph - N/A   Clear
5:53 PM 41.0 °F 35.2 °F 17.1 °F 38% 30.29 in 10.0 mi SSE 9.2 mph - N/A   Clear
6:53 PM 39.9 °F 35.1 °F 16.0 °F 38% 30.27 in 10.0 mi South 6.9 mph - N/A   Clear
7:53 PM 39.0 °F 32.3 °F 18.0 °F 43% 30.26 in 10.0 mi South 10.4 mph - N/A   Clear
8:53 PM 39.0 °F 32.3 °F 19.0 °F 45% 30.26 in 10.0 mi South 10.4 mph - N/A   Clear
9:53 PM 39.0 °F 32.3 °F 19.0 °F 45% 30.24 in 10.0 mi South 10.4 mph - N/A   Clear
10:53 PM 39.0 °F 31.4 °F 21.0 °F 49% 30.21 in 10.0 mi South 12.7 mph - N/A   Partly Cloudy
11:53 PM 37.9 °F 32.7 °F 28.9 °F 70% 30.23 in 10.0 mi South 6.9 mph - 0.00 in Rain Light Rain